Regional Weather Roundup
Issued by NWS

Home | Current Version | Previous Version | Text Only | Print | Product List | Glossary On
Versions: 1 2 3 4 5 6 7 8 9 10 11 12 13 14 15 16 17 18 19 20 21 22 23 24 25 26 27 28 29 30 31 32 33 34 35 36 37 38 39 40 41 42 43 44 45 46 47 48 49 50
000
ASUS44 KFWD 182215
RWRTX
NORTH TEXAS HOURLY WEATHER ROUNDUP
NATIONAL WEATHER SERVICE FORT WORTH TX
500 PM CDT FRI AUG 18 2017

NOTE: "FAIR" INDICATES FEW OR NO CLOUDS BELOW 12,000 FEET WITH NO
SIGNIFICANT WEATHER AND/OR OBSTRUCTIONS TO VISIBILITY.

TXZ118-119-182300-
DALLAS/FORT WORTH METROPLEX

CITY           SKY/WX    TMP DP  RH WIND       PRES   REMARKS
DFW AIRPORT    CLOUDY    84  75  74 N9        29.96F HX  92
DALLAS LOVE    LGT RAIN  86  73  65 N9        29.96F HX  93
FTW MEACHAM    CLOUDY    86  73  65 SW3       29.97F HX  93
DAL-EXECUTIVE  PTSUNNY   86  77  74 S6        29.94F HX  97
FTW-ALLIANCE   CLOUDY    81  75  82 SE3       29.98F
FTW-NAS-JRB    CLOUDY    87  72  60 VRB5      29.98F HX  93
FTW-SPINKS     SUNNY     88  72  58 SE7       29.98F HX  94
ARLINGTON      CLOUDY    86  75  69 SE8       29.96F HX  95
GRAND PRAIRIE  SUNNY     84  72  65 S9        29.97F
MESQUITE       PTSUNNY   88  75  66 SE5       29.95F HX  97
LANCASTER      CLOUDY    88  74  63 SW5       29.97F HX  97
$$

TXZ091>094-102>105-117-120-121-131>134-182300-
NORTH CENTRAL TEXAS

CITY           SKY/WX    TMP DP  RH WIND       PRES   REMARKS
SHRMAN/DENISON PTSUNNY   87  72  61 SW10      29.98F HX  93
GAINESVILLE    SUNNY     88  71  56 S8        29.98F HX  93
BOWIE          SUNNY     90  73  57 S9        29.97F HX  97
BRIDGEPORT     CLOUDY    82  73  72 SW3       29.99F
DECATUR        MOSUNNY   85  73  66 S7        29.99S HX  91
DENTON         PTSUNNY   83  74  74 S7        29.97F
MCKINNEY       CLOUDY    87  76  69 CALM      29.96F HX  97
BONHAM         PTSUNNY   84  75  74 SE6       29.97F HX  92
GREENVILLE     PTSUNNY   88  75  66 N3        29.97F HX  97
ROCKWALL       CLOUDY    87  74  65 S6        29.97F HX  96
TERRELL        CLOUDY    90  72  55 SW5       29.96F HX  97
WAXAHACHIE     CLOUDY    89  72  56 CALM      29.98F HX  96
CLEBURNE       PTSUNNY   90  70  51 VRB5      29.99F HX  95
GRANBURY       CLOUDY    88  70  54 E6        29.98F HX  92
$$

TXZ083>090-098>101-113>116-127>130-139>142-154-155-182300-
WESTERN NORTH TEXAS

CITY           SKY/WX    TMP DP  RH WIND       PRES   REMARKS
WICHITA FALLS  MOSUNNY   91  71  51 S16       29.95F HX  97
WF-KICKAPOO    SUNNY     92  71  50 SW9       29.97F HX  99
VERNON         SUNNY     94  64  36 S9        29.96F HX  96
ABILENE        SUNNY     93  67  42 SE10      30.00F HX  96
ABILENE-DYESS  MOSUNNY   94  65  38 S14       29.98F HX  96
GRAHAM         MOSUNNY   92  73  53 SE9       29.96F HX 100
BRECKENRIDGE   MOSUNNY   92  67  43 S9        29.98F HX  95
CISCO          CLOUDY    90  72  55 SE10      30.02F HX  96
EASTLAND       MOSUNNY   91  71  52 E7        30.00F HX  97
RANGER         MOSUNNY   85  73  69 E5        30.01F HX  91
MINERAL WELLS  CLOUDY    84  72  67 S7        29.97F
STEPHENVILLE   SUNNY     90  69  50 SE3       30.03F HX  94
COMANCHE       CLOUDY    92  70  47 E12       30.00F HX  97
BROWNWOOD      LGT RAIN  95  66  38 NE5       29.99F HX  98
COLEMAN        SUNNY     95  60  31 SE6       30.01F HX  95
$$

TXZ143>147-156>162-174-175-182300-
CENTRAL TEXAS

CITY           SKY/WX    TMP DP  RH WIND       PRES   REMARKS
WACO           SUNNY     97  71  42 N6        29.96F HX 104
WACO-TSTC      SUNNY     97  68  38 N5        29.96F HX 101
WACO-MCGREGOR  MOSUNNY   97  71  42 N10       29.97F HX 104
HILLSBORO      CLOUDY    92  73  52 NW3       29.98F HX 100
CORSICANA      SUNNY     98  66  34 CALM      29.97F HX 101
MEXIA          SUNNY     96  66  36 S8        29.96F HX  99
HEARNE         SUNNY     97  67  37 CALM      29.97F HX 100
CAMERON        SUNNY     98  66  34 SE5       29.96S HX 101
TEMPLE         MOSUNNY   98  64  32 SE3       29.96F HX 100
KILLEEN        MOSUNNY   97  64  34 SE3       29.97F HX  99
KILLEEN-SKYLRK SUNNY     99  67  35 VRB5      29.97F HX 103
FORT HOOD      SUNNY     96  64  35 N3        29.94F HX  98
HAMILTON       SUNNY     94  68  42 E9        30.01F HX  99
LAMPASAS       SUNNY     98  64  32 SE8       29.98F HX 100
$$

TXZ095>097-106>112-122>126-135>138-148>153-164>167-182300-
EAST TEXAS

CITY           SKY/WX    TMP DP  RH WIND       PRES   REMARKS
PARIS          CLOUDY    88  74  63 SW10      29.98F HX  96
SULPHUR SPRNGS CLOUDY    89  77  67 NW8       29.99F HX 101
MOUNT PLEASANT MOSUNNY   91  71  51 SW6       29.98F HX  98
GILMER         SUNNY     90  72  55 CALM      29.98F HX  97
MINEOLA        CLOUDY    91  73  55 SW5       29.97F HX 100
TYLER          SUNNY     92  68  45 W7        29.98F HX  96
LONGVIEW       MOSUNNY   92  77  61 W5        29.97F HX 105
MARSHALL         N/A     90  72  55 W5        30.00F HX  97
ATHENS         SUNNY     91  68  46 CALM      29.96F HX  95
PALESTINE      MOSUNNY   96  71  44 W6        29.98F HX 103
JACKSONVILLE   MOSUNNY   93  71  48 CALM      30.01F HX 100
HENDERSON      MOSUNNY   92  74  55 NW6       29.99F HX 102
CENTER         CLEAR     96  75  51 CALM      29.99F HX 107
NACOGDOCHES    SUNNY     94  73  50 W5        29.99S HX 103
LUFKIN         MOSUNNY   94  71  47 CALM      29.97F HX 101
$$

SUPPLEMENTAL OBSERVATIONS (NWS FORT WORTH AREA)

CITY           SKY/WX    TMP DP  RH WIND       PRES   REMARKS
DENISON DAM      N/A     88  72  58 SW5         N/A  HX  94
CADDO GRASSLND   N/A     84  73  70 S7          N/A  HX  91
PAT MAYSE LAKE   N/A     88  77  70 S9          N/A  HX 100
GREENVILLE       N/A     88  72  58 NW5         N/A  HX  94
CEDAR HILL       N/A     86  73  66 S6          N/A  HX  93
LBJ GRASSLAND    N/A     86  73  66 S6          N/A  HX  93
COMANCHE         N/A     91  70  49 E10         N/A  HX  97
MCGREGOR         N/A     97  61  30 SE7         N/A  HX  97
LAKE LIMESTONE   N/A    100  61  27 W2          N/A  HX 101
ATHENS           N/A     93  68  43 S3          N/A  HX  97
$$

SUPPLEMENTAL OBSERVATIONS (NWS NORMAN AREA)

CITY           SKY/WX    TMP DP  RH WIND       PRES   REMARKS
GOODLETT         N/A     95  63  35 SW10      29.97F HX  96
ODELL            N/A     93  70  45 S12       29.97F HX  99
CROWELL          N/A     95  70  43 S8        29.97F HX 100
KNOX CITY        N/A     96  64  34 S13       29.97F HX  98
SEYMOUR          N/A     95  67  39 S9        29.97S HX  98
MILLERS CREEK    N/A     97  72  44 S7G17       N/A  HX 105
$$

SUPPLEMENTAL OBSERVATIONS (NWS SAN ANGELO AREA)

CITY           SKY/WX    TMP DP  RH WIND       PRES   REMARKS
WEINERT          N/A     95  71  44 S12       29.98S HX 102
HASKELL          N/A     93  63  36 S10       29.98F HX  94
THROCKMORTON     N/A     94  73  50 SE5       29.98F HX 103
STAMFORD         N/A     97  69  39 S8        29.98F HX 102
CLYDE            N/A     91  71  51 E8        30.03F HX  98
HAMBY            N/A     97  66  36 S7G15       N/A  HX 100
IVIE RESERVOIR   N/A     95  66  38 E9G17       N/A  HX  98
COLORADO BEND    N/A     99  59  26 S8          N/A  HX  98
$$

SUPPLEMENTAL OBSERVATIONS (NWS SHREVEPORT AREA)

CITY           SKY/WX    TMP DP  RH WIND       PRES   REMARKS
CLARKSVILLE      N/A     93  77  59 SW1         N/A  HX 107
CADDO LAKE       N/A     95  73  49 W3          N/A  HX 105
GILMER           N/A     93  73  52 W5G14       N/A  HX 102
HENDERSON        N/A     93  73  52 W5          N/A  HX 102
LUFKIN           N/A     97  70  41 MISG        N/A  HX 103
N SABINE NF      N/A     93  72  49 MISG        N/A  HX 100
S SABINE NF      N/A     95  73  49 E3          N/A  HX 105
$$

SUPPLEMENTAL OBSERVATIONS ARE A COLLECTION OF AUTOMATED INSTRUMENTS
THAT ARE MAINTAINED BY A VARIETY OF FEDERAL AND STATE AGENCIES.
CERTAIN ELEMENTS...SUCH AS HUMIDITY VALUES AND SUSTAINED WIND
SPEEDS...MAY BE APPROXIMATED.




USA.gov is the U.S. government's official web portal to all federal, state and local government web resources and services.